Weather History for Altus, OK

Change the Weather History Date:

Friday, August 2, 2013

  Actual Average (KLTS) Record (KLTS)
Temperature  
Mean Temperature 92 °F -  
Max Temperature 107 °F 95 °F 112 °F (2012)
Min Temperature 77 °F 71 °F 66 °F (2000)
Cooling Degree Days 27    
Growing Degree Days 42 (Base 50)    
Moisture  
Dew Point 62 °F    
Average Humidity 41    
Maximum Humidity 80    
Minimum Humidity 17    
Precipitation  
Precipitation 0.00 in - - ()
Sea Level Pressure  
Sea Level Pressure 29.89 in    
Wind  
Wind Speed 12 mph (South)    
Max Wind Speed 21 mph    
Max Gust Speed 29 mph    
Visibility 10 miles    
Events      
Averages and records for this station are not official NWS values.
T = Trace of Precipitation, MM = Missing Value Source: NWS Daily Summary

Daily Weather History Graph

Daily Weather History Graph

Search for Another Location

Airport:

Trip Planner

Search our weather history database for the weather conditions in past years. The results will help you decide how hot, cold, wet, or windy it might be!

Date:

Astronomy

Aug. 02, 2013 Rise Set
Actual Time 6:48 AM CDT 8:38 PM CDT
Civil Twilight 6:20 AM CDT 9:05 PM CDT
Nautical Twilight 5:47 AM CDT 9:39 PM CDT
Astronomical Twilight 5:11 AM CDT 10:14 PM CDT
Moon 3:12 AM CDT (8/2) 5:35 PM CDT (8/2)
Length of Visible Light 14h 45m
Length of Day
13h 50m
Waning Crescent, 15% of the Moon is Illuminated
Aug 2
Waning Crescent
Aug 6
New
Aug 14
First Quarter
Aug 20
Full
Aug 28
Last Quarter

Hourly Weather History & Observations

Time (CDT) Temp. Heat Index Dew Point Humidity Pressure Visibility Wind Dir Wind Speed Gust Speed Precip Events Conditions
12:15 AM 81.0 °F 83.4 °F 67.3 °F 63% 29.99 in 10.0 mi ESE 9.2 mph - N/A   Clear
12:35 AM 81.5 °F 84.2 °F 67.6 °F 63% 29.99 in 10.0 mi ESE 9.2 mph - N/A   Clear
12:55 AM 81.9 °F 84.8 °F 68.2 °F 63% 29.98 in 10.0 mi ESE 8.1 mph - N/A   Clear
1:15 AM 82.4 °F 85.8 °F 68.9 °F 64% 29.97 in 10.0 mi SE 11.5 mph - N/A   Clear
1:35 AM 82.4 °F 85.8 °F 69.1 °F 64% 29.97 in 10.0 mi SE 11.5 mph - N/A   Clear
1:55 AM 82.0 °F 85.5 °F 69.1 °F 65% 29.96 in 10.0 mi ESE 9.2 mph - N/A   Clear
2:15 AM 81.7 °F 85.1 °F 69.4 °F 66% 29.95 in 10.0 mi SE 10.4 mph - N/A   Clear
2:35 AM 82.0 °F 85.7 °F 69.8 °F 66% 29.94 in 10.0 mi SE 11.5 mph - N/A   Clear
2:55 AM 81.9 °F 85.8 °F 70.2 °F 68% 29.93 in 10.0 mi SE 12.7 mph - N/A   Clear
3:15 AM 81.5 °F 85.3 °F 70.3 °F 69% 29.93 in 10.0 mi SE 11.5 mph - N/A   Clear
3:35 AM 81.1 °F 84.9 °F 70.7 °F 70% 29.92 in 10.0 mi SE 10.4 mph - N/A   Clear
3:55 AM 80.8 °F 84.4 °F 70.7 °F 71% 29.92 in 10.0 mi SE 9.2 mph - N/A   Clear
4:15 AM 80.6 °F 84.2 °F 70.7 °F 72% 29.92 in 10.0 mi SE 10.4 mph - N/A   Clear
4:35 AM 80.1 °F 83.4 °F 70.7 °F 73% 29.92 in 10.0 mi SE 10.4 mph - N/A   Clear
4:55 AM 79.7 °F - 70.7 °F 74% 29.92 in 10.0 mi SE 6.9 mph - N/A   Clear
5:15 AM 79.2 °F - 70.7 °F 75% 29.92 in 10.0 mi SE 5.8 mph - N/A   Clear
5:35 AM 79.0 °F - 70.7 °F 76% 29.92 in 10.0 mi SE 8.1 mph - N/A   Clear
5:55 AM 78.4 °F - 70.7 °F 77% 29.92 in 10.0 mi SE 5.8 mph - N/A   Clear
6:15 AM 77.7 °F - 70.7 °F 79% 29.91 in 10.0 mi SE 5.8 mph - N/A   Clear
6:35 AM 77.4 °F - 70.7 °F 80% 29.91 in 10.0 mi SE 5.8 mph - N/A   Clear
6:55 AM 77.4 °F - 70.7 °F 80% 29.92 in 10.0 mi SE 5.8 mph - N/A   Clear
7:35 AM 78.1 °F - 70.7 °F 78% 29.92 in 10.0 mi SE 4.6 mph - N/A   Clear
7:55 AM 79.7 °F - 70.7 °F 74% 29.92 in 10.0 mi SSE 6.9 mph - N/A   Clear
8:15 AM 81.7 °F 85.4 °F 70.2 °F 68% 29.92 in 10.0 mi SSE 8.1 mph - N/A   Clear
8:35 AM 83.5 °F 87.2 °F 69.3 °F 62% 29.92 in 10.0 mi South 8.1 mph - N/A   Clear
8:55 AM 85.3 °F 88.2 °F 67.6 °F 55% 29.92 in 10.0 mi South 9.2 mph - N/A   Clear
9:15 AM 87.4 °F 90.1 °F 66.9 °F 50% 29.92 in 10.0 mi South 10.4 mph - N/A   Clear
9:35 AM 88.9 °F 90.7 °F 65.3 °F 45% 29.92 in 10.0 mi SSW 12.7 mph - N/A   Clear
9:55 AM 90.9 °F 92.3 °F 64.4 °F 41% 29.92 in 10.0 mi SW 11.5 mph 19.6 mph N/A   Clear
10:15 AM 92.5 °F 93.7 °F 63.1 °F 38% 29.92 in 10.0 mi SW 11.5 mph 18.4 mph N/A   Clear
10:35 AM 95.0 °F 94.8 °F 60.3 °F 31% 29.92 in 10.0 mi WSW 12.7 mph 17.3 mph N/A   Clear
10:55 AM 96.3 °F 96.3 °F 59.7 °F 30% 29.92 in 10.0 mi SW 15.0 mph 20.7 mph N/A   Clear
11:15 AM 96.8 °F 96.2 °F 59.0 °F 28% 29.93 in 10.0 mi WSW 17.3 mph - N/A   Clear
11:35 AM 98.6 °F 98.5 °F 58.8 °F 27% 29.92 in 10.0 mi WSW 15.0 mph - N/A   Clear
11:55 AM 99.3 °F 99.1 °F 59.0 °F 26% 29.92 in 10.0 mi WSW 12.7 mph 21.9 mph N/A   Clear
12:15 PM 101.1 °F 100.3 °F 57.0 °F 23% 29.91 in 10.0 mi WSW 17.3 mph 24.2 mph N/A   Clear
12:35 PM 103.1 °F 102.1 °F 56.1 °F 21% 29.91 in 10.0 mi WSW 18.4 mph 24.2 mph N/A   Clear
12:55 PM 102.7 °F 101.6 °F 55.4 °F 21% 29.90 in 10.0 mi WSW 16.1 mph 24.2 mph N/A   Clear
1:15 PM 104.0 °F 102.3 °F 54.7 °F 19% 29.89 in 10.0 mi SSW 16.1 mph 24.2 mph N/A   Clear
1:35 PM 104.5 °F 103.1 °F 54.1 °F 19% 29.88 in 10.0 mi SW 13.8 mph 23.0 mph N/A   Clear
1:55 PM 104.5 °F 103.1 °F 54.3 °F 19% 29.88 in 10.0 mi SW 17.3 mph 21.9 mph N/A   Clear
2:15 PM 105.1 °F 103.8 °F 54.3 °F 19% 29.87 in 10.0 mi SW 16.1 mph 21.9 mph N/A   Clear
2:35 PM 106.2 °F 104.7 °F 54.1 °F 18% 29.87 in 10.0 mi SSW 20.7 mph 24.2 mph N/A   Clear
2:55 PM 106.5 °F 104.6 °F 53.8 °F 17% 29.87 in 10.0 mi SSW 16.1 mph 28.8 mph N/A   Clear
3:15 PM 106.3 °F 104.4 °F 53.1 °F 17% 29.87 in 10.0 mi SSW 13.8 mph 21.9 mph N/A   Clear
3:35 PM 106.3 °F 104.4 °F 53.1 °F 17% 29.86 in 10.0 mi SSW 15.0 mph 24.2 mph N/A   Clear
3:55 PM 106.9 °F - 52.9 °F 17% 29.85 in 10.0 mi SSW 12.7 mph 23.0 mph N/A   Clear
4:15 PM 105.8 °F 103.7 °F 53.2 °F 17% 29.85 in 10.0 mi South 10.4 mph 24.2 mph N/A   Clear
4:35 PM 106.0 °F 103.9 °F 53.2 °F 17% 29.84 in 10.0 mi SW 15.0 mph 24.2 mph N/A   Clear
4:55 PM 107.1 °F 105.4 °F 53.6 °F 17% 29.84 in 10.0 mi SSW 17.3 mph 21.9 mph N/A   Clear
5:15 PM 106.5 °F 104.6 °F 53.8 °F 17% 29.84 in 10.0 mi South 19.6 mph 25.3 mph N/A   Clear
5:35 PM 106.0 °F 104.5 °F 53.8 °F 18% 29.83 in 10.0 mi SSW 19.6 mph 28.8 mph N/A   Clear
5:55 PM 105.4 °F 103.8 °F 54.1 °F 18% 29.83 in 10.0 mi South 17.3 mph 25.3 mph N/A   Clear
6:15 PM 105.1 °F 103.8 °F 54.3 °F 19% 29.83 in 10.0 mi SSW 16.1 mph - N/A   Clear
6:35 PM 104.4 °F 102.8 °F 54.5 °F 19% 29.82 in 10.0 mi South 17.3 mph 26.5 mph N/A   Clear
6:55 PM 104.0 °F 102.3 °F 54.5 °F 19% 29.83 in 10.0 mi South 18.4 mph - N/A   Clear
7:15 PM 103.1 °F 101.6 °F 54.5 °F 20% 29.83 in 10.0 mi South 18.4 mph 25.3 mph N/A   Clear
7:35 PM 102.6 °F 100.9 °F 54.1 °F 20% 29.83 in 10.0 mi South 18.4 mph - N/A   Clear
7:55 PM 101.8 °F 99.9 °F 53.6 °F 20% 29.83 in 10.0 mi South 17.3 mph 24.2 mph N/A   Clear
8:15 PM 100.6 °F 99.5 °F 56.5 °F 23% 29.84 in 10.0 mi South 19.6 mph - N/A   Clear
8:35 PM 99.0 °F 98.1 °F 57.4 °F 25% 29.84 in 10.0 mi South 17.3 mph - N/A   Clear
8:55 PM 97.9 °F 97.0 °F 57.7 °F 26% 29.85 in 10.0 mi South 17.3 mph - N/A   Clear
9:15 PM 97.0 °F 96.1 °F 58.1 °F 27% 29.85 in 10.0 mi South 19.6 mph - N/A   Clear
9:35 PM 96.3 °F 95.5 °F 58.5 °F 28% 29.85 in 10.0 mi South 17.3 mph 23.0 mph N/A   Clear
9:55 PM 95.5 °F 94.8 °F 58.5 °F 29% 29.86 in 10.0 mi South 19.6 mph 25.3 mph N/A   Clear
10:15 PM 95.0 °F 94.0 °F 58.5 °F 29% 29.86 in 10.0 mi South 18.4 mph 24.2 mph N/A   Clear
10:35 PM 94.1 °F 93.1 °F 58.5 °F 30% 29.87 in 10.0 mi South 18.4 mph 25.3 mph N/A   Clear
10:55 PM 93.4 °F 92.5 °F 58.3 °F 31% 29.87 in 10.0 mi South 15.0 mph - N/A   Clear
11:15 PM 93.2 °F 92.2 °F 57.9 °F 31% 29.87 in 10.0 mi South 18.4 mph 24.2 mph N/A   Clear
11:35 PM 92.5 °F 91.3 °F 57.4 °F 31% 29.88 in 10.0 mi South 17.3 mph - N/A   Clear
11:55 PM 92.3 °F 91.0 °F 57.6 °F 31% 29.88 in 10.0 mi South 16.1 mph - N/A   Clear